Time,TemperatureF,DewpointF,PressureIn,WindDirection,WindDirectionDegrees,WindSpeedMPH,WindSpeedGustMPH,Humidity,HourlyPrecipIn,Conditions,Clouds,dailyrainin,SoftwareType,DateUTC
2013-04-14 00:01:00,29.0,6.0,-100.00,WSW,255,16.0,24.0,37,-99.99,,,-99.99,,2013-04-14 06:01:00,
2013-04-14 00:11:00,29.0,6.0,-100.00,West,270,15.0,23.0,36,-99.99,,,-99.99,,2013-04-14 06:11:00,
2013-04-14 00:21:00,29.0,5.0,-100.00,West,275,15.0,24.0,36,-99.99,,,-99.99,,2013-04-14 06:21:00,
2013-04-14 00:32:00,29.0,4.0,-100.00,West,270,17.0,23.0,33,-99.99,,,-99.99,,2013-04-14 06:32:00,
2013-04-14 00:42:00,29.0,4.0,-100.00,West,280,13.0,22.0,34,-99.99,,,-99.99,,2013-04-14 06:42:00,
2013-04-14 00:51:00,29.0,5.0,-100.00,North,-999,-999.0,-999.0,34,-99.99,,,-99.99,,2013-04-14 06:51:00,
2013-04-14 01:01:00,29.0,4.0,-100.00,NW,315,11.0,19.0,35,-99.99,,,-99.99,,2013-04-14 07:01:00,
2013-04-14 01:11:00,28.0,8.0,-100.00,NW,315,10.0,16.0,40,-99.99,,,-99.99,,2013-04-14 07:11:00,
2013-04-14 01:21:00,27.0,18.0,-100.00,North,0,7.0,12.0,66,-99.99,,,-99.99,,2013-04-14 07:21:00,
2013-04-14 01:32:00,27.0,21.0,-100.00,North,0,10.0,15.0,78,-99.99,,,-99.99,,2013-04-14 07:32:00,
2013-04-14 01:41:00,26.0,22.0,-100.00,North,0,9.0,14.0,83,-99.99,,,-99.99,,2013-04-14 07:41:00,
2013-04-14 01:52:00,26.0,22.0,-100.00,North,355,9.0,16.0,84,-99.99,,,-99.99,,2013-04-14 07:52:00,
2013-04-14 02:01:00,26.0,22.0,-100.00,NNW,335,9.0,11.0,85,-99.99,,,-99.99,,2013-04-14 08:01:00,
2013-04-14 02:11:00,25.0,21.0,-100.00,NNW,335,10.0,12.0,85,-99.99,,,-99.99,,2013-04-14 08:11:00,
2013-04-14 02:21:00,24.0,20.0,-100.00,NNW,330,11.0,15.0,85,-99.99,,,-99.99,,2013-04-14 08:21:00,
2013-04-14 02:32:00,24.0,20.0,-100.00,NNW,330,9.0,14.0,85,-99.99,,,-99.99,,2013-04-14 08:32:00,
2013-04-14 02:41:00,24.0,20.0,-100.00,NNW,335,11.0,15.0,85,-99.99,,,-99.99,,2013-04-14 08:41:00,
2013-04-14 02:51:00,23.0,19.0,-100.00,NNW,340,7.0,-999.0,85,-99.99,,,-99.99,,2013-04-14 08:51:00,
2013-04-14 03:02:00,23.0,19.0,-100.00,NNW,340,7.0,-999.0,85,-99.99,,,-99.99,,2013-04-14 09:02:00,
2013-04-14 03:11:00,23.0,19.0,-100.00,NNW,340,7.0,-999.0,85,-99.99,,,-99.99,,2013-04-14 09:11:00,
2013-04-14 03:32:00,23.0,19.0,-100.00,NW,310,5.0,6.0,85,-99.99,,,-99.99,,2013-04-14 09:32:00,
2013-04-14 03:42:00,23.0,19.0,-100.00,NNW,340,4.0,6.0,85,-99.99,,,-99.99,,2013-04-14 09:42:00,
2013-04-14 03:53:00,23.0,19.0,-100.00,North,355,2.0,5.0,85,-99.99,,,-99.99,,2013-04-14 09:53:00,
2013-04-14 04:02:00,23.0,19.0,-100.00,NW,305,2.0,4.0,85,-99.99,,,-99.99,,2013-04-14 10:02:00,
2013-04-14 04:12:00,23.0,19.0,-100.00,NW,315,3.0,4.0,85,-99.99,,,-99.99,,2013-04-14 10:12:00,
2013-04-14 04:22:00,23.0,19.0,-100.00,NNW,340,2.0,4.0,85,-99.99,,,-99.99,,2013-04-14 10:22:00,
2013-04-14 04:32:00,23.0,19.0,-100.00,NNW,330,1.0,3.0,85,-99.99,,,-99.99,,2013-04-14 10:32:00,
2013-04-14 04:42:00,23.0,19.0,-100.00,NW,325,2.0,3.0,85,-99.99,,,-99.99,,2013-04-14 10:42:00,
2013-04-14 04:52:00,23.0,19.0,-100.00,North,350,6.0,7.0,85,-99.99,,,-99.99,,2013-04-14 10:52:00,
2013-04-14 05:02:00,22.0,18.0,-100.00,North,0,6.0,18.0,85,-99.99,,,-99.99,,2013-04-14 11:02:00,
2013-04-14 05:11:00,22.0,19.0,-100.00,North,0,7.0,13.0,85,-99.99,,,-99.99,,2013-04-14 11:11:00,
2013-04-14 05:22:00,22.0,18.0,-100.00,NNE,15,8.0,13.0,85,-99.99,,,-99.99,,2013-04-14 11:22:00,
2013-04-14 05:32:00,22.0,18.0,-100.00,NNW,330,7.0,11.0,85,-99.99,,,-99.99,,2013-04-14 11:32:00,
2013-04-14 05:42:00,22.0,18.0,-100.00,North,355,7.0,11.0,85,-99.99,,,-99.99,,2013-04-14 11:42:00,
2013-04-14 05:52:00,21.0,17.0,-100.00,North,0,12.0,15.0,85,-99.99,,,-99.99,,2013-04-14 11:52:00,
2013-04-14 06:01:00,21.0,17.0,-100.00,North,355,11.0,17.0,84,-99.99,,,-99.99,,2013-04-14 12:01:00,
2013-04-14 06:11:00,21.0,17.0,-100.00,NNW,335,7.0,14.0,84,-99.99,,,-99.99,,2013-04-14 12:11:00,
2013-04-14 06:21:00,20.0,16.0,-100.00,NW,305,5.0,9.0,84,-99.99,,,-99.99,,2013-04-14 12:21:00,
2013-04-14 06:32:00,19.0,16.0,-100.00,West,260,6.0,6.0,84,-99.99,,,-99.99,,2013-04-14 12:32:00,
2013-04-14 06:42:00,18.0,14.0,-100.00,WSW,250,6.0,7.0,83,-99.99,,,-99.99,,2013-04-14 12:42:00,
2013-04-14 06:51:00,18.0,14.0,-100.00,West,265,2.0,6.0,83,-99.99,,,-99.99,,2013-04-14 12:51:00,
2013-04-14 07:02:00,17.0,13.0,-100.00,WSW,255,4.0,5.0,83,-99.99,,,-99.99,,2013-04-14 13:02:00,
2013-04-14 07:11:00,17.0,13.0,-100.00,West,265,3.0,6.0,83,-99.99,,,-99.99,,2013-04-14 13:11:00,
2013-04-14 07:22:00,17.0,13.0,-100.00,West,275,2.0,6.0,83,-99.99,,,-99.99,,2013-04-14 13:22:00,
2013-04-14 07:32:00,18.0,14.0,-100.00,West,260,4.0,6.0,82,-99.99,,,-99.99,,2013-04-14 13:32:00,
2013-04-14 07:41:00,20.0,16.0,-100.00,West,270,4.0,6.0,83,-99.99,,,-99.99,,2013-04-14 13:41:00,
2013-04-14 07:52:00,21.0,17.0,-100.00,West,270,4.0,5.0,83,-99.99,,,-99.99,,2013-04-14 13:52:00,
2013-04-14 08:02:00,21.0,16.0,-100.00,West,270,6.0,9.0,80,-99.99,,,-99.99,,2013-04-14 14:02:00,
2013-04-14 08:11:00,22.0,15.0,-100.00,West,270,6.0,12.0,74,-99.99,,,-99.99,,2013-04-14 14:11:00,
2013-04-14 08:21:00,24.0,15.0,-100.00,West,275,6.0,7.0,68,-99.99,,,-99.99,,2013-04-14 14:21:00,
2013-04-14 08:32:00,25.0,13.0,-100.00,West,270,6.0,7.0,59,-99.99,,,-99.99,,2013-04-14 14:32:00,
2013-04-14 08:41:00,26.0,12.0,-100.00,West,270,4.0,7.0,53,-99.99,,,-99.99,,2013-04-14 14:41:00,
2013-04-14 08:52:00,27.0,10.0,-100.00,West,270,3.0,6.0,47,-99.99,,,-99.99,,2013-04-14 14:52:00,
2013-04-14 09:02:00,30.0,11.0,-100.00,West,280,4.0,6.0,44,-99.99,,,-99.99,,2013-04-14 15:02:00,
2013-04-14 09:11:00,30.0,8.0,-100.00,West,275,5.0,6.0,39,-99.99,,,-99.99,,2013-04-14 15:11:00,
2013-04-14 09:22:00,31.0,7.0,-100.00,WNW,295,3.0,6.0,35,-99.99,,,-99.99,,2013-04-14 15:22:00,
2013-04-14 09:33:00,34.0,7.0,-100.00,WNW,290,4.0,6.0,31,-99.99,,,-99.99,,2013-04-14 15:33:00,
2013-04-14 09:42:00,33.0,5.0,-100.00,NW,310,5.0,7.0,29,-99.99,,,-99.99,,2013-04-14 15:42:00,
2013-04-14 09:52:00,33.0,3.0,-100.00,West,275,4.0,8.0,27,-99.99,,,-99.99,,2013-04-14 15:52:00,
2013-04-14 10:03:00,33.0,3.0,-100.00,WNW,290,5.0,7.0,27,-99.99,,,-99.99,,2013-04-14 16:03:00,
2013-04-14 10:12:00,32.0,1.0,-100.00,NW,305,8.0,12.0,26,-99.99,,,-99.99,,2013-04-14 16:12:00,
2013-04-14 10:22:00,32.0,0.0,-100.00,NNW,330,7.0,11.0,25,-99.99,,,-99.99,,2013-04-14 16:22:00,
2013-04-14 10:32:00,31.0,1.0,-100.00,NW,315,7.0,10.0,27,-99.99,,,-99.99,,2013-04-14 16:32:00,
2013-04-14 10:42:00,34.0,2.0,-100.00,West,270,6.0,11.0,24,-99.99,,,-99.99,,2013-04-14 16:42:00,
2013-04-14 10:52:00,34.0,2.0,-100.00,WNW,300,9.0,12.0,24,-99.99,,,-99.99,,2013-04-14 16:52:00,
2013-04-14 11:01:00,33.0,-1.0,-100.00,WNW,290,11.0,17.0,23,-99.99,,,-99.99,,2013-04-14 17:01:00,
2013-04-14 11:11:00,33.0,0.0,-100.00,WNW,300,11.0,17.0,23,-99.99,,,-99.99,,2013-04-14 17:11:00,
2013-04-14 11:22:00,30.0,-1.0,-100.00,WNW,300,9.0,16.0,25,-99.99,,,-99.99,,2013-04-14 17:22:00,
2013-04-14 11:32:00,32.0,0.0,-100.00,NW,305,13.0,18.0,24,-99.99,,,-99.99,,2013-04-14 17:32:00,
2013-04-14 11:41:00,33.0,0.0,-100.00,NW,305,15.0,20.0,23,-99.99,,,-99.99,,2013-04-14 17:41:00,
2013-04-14 11:52:00,31.0,-2.0,-100.00,NNW,340,17.0,26.0,23,-99.99,,,-99.99,,2013-04-14 17:52:00,
2013-04-14 12:02:00,30.0,-3.0,-100.00,NW,305,18.0,27.0,23,-99.99,,,-99.99,,2013-04-14 18:02:00,
2013-04-14 12:11:00,29.0,-3.0,-100.00,NW,305,19.0,27.0,23,-99.99,,,-99.99,,2013-04-14 18:11:00,
2013-04-14 12:21:00,30.0,-3.0,-100.00,NW,305,16.0,24.0,23,-99.99,,,-99.99,,2013-04-14 18:21:00,
2013-04-14 12:32:00,29.0,-5.0,-100.00,NNW,330,14.0,24.0,22,-99.99,,,-99.99,,2013-04-14 18:32:00,
2013-04-14 12:42:00,31.0,-3.0,-100.00,NNW,340,17.0,26.0,21,-99.99,,,-99.99,,2013-04-14 18:42:00,
2013-04-14 12:51:00,32.0,-3.0,-100.00,WNW,285,17.0,26.0,21,-99.99,,,-99.99,,2013-04-14 18:51:00,
2013-04-14 13:02:00,31.0,-4.0,-100.00,NW,325,17.0,26.0,21,-99.99,,,-99.99,,2013-04-14 19:02:00,
2013-04-14 13:11:00,30.0,-5.0,-100.00,NW,320,22.0,27.0,21,-99.99,,,-99.99,,2013-04-14 19:11:00,
2013-04-14 13:21:00,32.0,-3.0,-100.00,NW,320,21.0,26.0,21,-99.99,,,-99.99,,2013-04-14 19:21:00,
2013-04-14 13:32:00,31.0,-3.0,-100.00,NW,315,17.0,34.0,22,-99.99,,,-99.99,,2013-04-14 19:32:00,
2013-04-14 13:52:00,32.0,-2.0,-100.00,NNW,335,15.0,26.0,21,-99.99,,,-99.99,,2013-04-14 19:52:00,
2013-04-14 14:02:00,33.0,-3.0,-100.00,NW,315,14.0,21.0,21,-99.99,,,-99.99,,2013-04-14 20:02:00,
2013-04-14 14:11:00,32.0,-4.0,-100.00,NW,315,17.0,22.0,20,-99.99,,,-99.99,,2013-04-14 20:11:00,
2013-04-14 14:21:00,31.0,-4.0,-100.00,NNW,340,16.0,27.0,21,-99.99,,,-99.99,,2013-04-14 20:21:00,
2013-04-14 14:32:00,31.0,-3.0,-100.00,NW,320,17.0,24.0,21,-99.99,,,-99.99,,2013-04-14 20:32:00,
2013-04-14 14:42:00,32.0,-3.0,-100.00,NW,315,18.0,23.0,21,-99.99,,,-99.99,,2013-04-14 20:42:00,
2013-04-14 14:52:00,33.0,-3.0,-100.00,NW,315,20.0,23.0,21,-99.99,,,-99.99,,2013-04-14 20:52:00,
2013-04-14 15:02:00,32.0,-4.0,-100.00,NW,315,21.0,24.0,20,-99.99,,,-99.99,,2013-04-14 21:02:00,
2013-04-14 15:22:00,32.0,-4.0,-100.00,WNW,290,20.0,37.0,20,-99.99,,,-99.99,,2013-04-14 21:22:00,
2013-04-14 15:32:00,34.0,-3.0,-100.00,NW,310,19.0,26.0,19,-99.99,,,-99.99,,2013-04-14 21:32:00,
2013-04-14 15:42:00,33.0,-5.0,-100.00,NW,310,19.0,27.0,18,-99.99,,,-99.99,,2013-04-14 21:42:00,
2013-04-14 15:52:00,33.0,-3.0,-100.00,WNW,300,20.0,25.0,19,-99.99,,,-99.99,,2013-04-14 21:52:00,
2013-04-14 16:02:00,34.0,-4.0,-100.00,NW,310,14.0,19.0,19,-99.99,,,-99.99,,2013-04-14 22:02:00,
2013-04-14 16:12:00,33.0,-2.0,-100.00,North,350,10.0,21.0,21,-99.99,,,-99.99,,2013-04-14 22:12:00,
2013-04-14 16:22:00,33.0,-1.0,-100.00,NNW,335,12.0,19.0,22,-99.99,,,-99.99,,2013-04-14 22:22:00,
2013-04-14 16:32:00,34.0,-3.0,-100.00,NW,320,17.0,27.0,20,-99.99,,,-99.99,,2013-04-14 22:32:00,
2013-04-14 16:42:00,34.0,-3.0,-100.00,NW,310,15.0,23.0,19,-99.99,,,-99.99,,2013-04-14 22:42:00,
2013-04-14 16:52:00,35.0,-3.0,-100.00,NW,320,13.0,24.0,19,-99.99,,,-99.99,,2013-04-14 22:52:00,
2013-04-14 17:02:00,33.0,-3.0,-100.00,North,0,13.0,23.0,21,-99.99,,,-99.99,,2013-04-14 23:02:00,
2013-04-14 17:12:00,33.0,-4.0,-100.00,NW,315,12.0,19.0,20,-99.99,,,-99.99,,2013-04-14 23:12:00,
2013-04-14 17:21:00,34.0,-3.0,-100.00,NNW,330,11.0,16.0,19,-99.99,,,-99.99,,2013-04-14 23:21:00,
2013-04-14 17:32:00,34.0,-3.0,-100.00,NW,325,11.0,16.0,19,-99.99,,,-99.99,,2013-04-14 23:32:00,
2013-04-14 17:42:00,34.0,-4.0,-100.00,NW,325,10.0,14.0,19,-99.99,,,-99.99,,2013-04-14 23:42:00,
2013-04-14 17:52:00,35.0,-2.0,-100.00,NNW,340,16.0,22.0,19,-99.99,,,-99.99,,2013-04-14 23:52:00,
2013-04-14 18:01:00,33.0,-5.0,-100.00,NNW,345,17.0,21.0,19,-99.99,,,-99.99,,2013-04-15 00:01:00,
2013-04-14 18:11:00,33.0,-5.0,-100.00,NNW,345,17.0,21.0,19,-99.99,,,-99.99,,2013-04-15 00:11:00,
2013-04-14 18:22:00,33.0,-5.0,-100.00,NNW,340,11.0,17.0,18,-99.99,,,-99.99,,2013-04-15 00:22:00,
2013-04-14 18:32:00,33.0,-4.0,-100.00,NNW,330,12.0,17.0,19,-99.99,,,-99.99,,2013-04-15 00:32:00,
2013-04-14 18:41:00,34.0,-3.0,-100.00,NNW,330,9.0,15.0,19,-99.99,,,-99.99,,2013-04-15 00:41:00,
2013-04-14 18:52:00,34.0,-4.0,-100.00,NNW,345,12.0,18.0,19,-99.99,,,-99.99,,2013-04-15 00:52:00,
2013-04-14 19:02:00,33.0,-3.0,-100.00,NNE,15,9.0,-999.0,21,-99.99,,,-99.99,,2013-04-15 01:02:00,
2013-04-14 19:11:00,33.0,-3.0,-100.00,NNE,20,9.0,17.0,21,-99.99,,,-99.99,,2013-04-15 01:11:00,
2013-04-14 19:21:00,32.0,-3.0,-100.00,NNE,15,6.0,11.0,21,-99.99,,,-99.99,,2013-04-15 01:21:00,
2013-04-14 19:32:00,32.0,-3.0,-100.00,North,355,7.0,11.0,21,-99.99,,,-99.99,,2013-04-15 01:32:00,
2013-04-14 19:41:00,31.0,-2.0,-100.00,NNE,15,6.0,9.0,23,-99.99,,,-99.99,,2013-04-15 01:41:00,
2013-04-14 19:42:00,32.0,-3.0,-100.00,North,355,4.0,11.0,21,-99.99,,,-99.99,,2013-04-15 01:42:00,
2013-04-14 19:52:00,31.0,-2.0,-100.00,NNE,25,5.0,7.0,23,-99.99,,,-99.99,,2013-04-15 01:52:00,
2013-04-14 20:02:00,31.0,-2.0,-100.00,NNE,15,6.0,9.0,23,-99.99,,,-99.99,,2013-04-15 02:02:00,
2013-04-14 20:11:00,31.0,-2.0,-100.00,NNE,15,6.0,9.0,23,-99.99,,,-99.99,,2013-04-15 02:11:00,
2013-04-14 20:21:00,31.0,-2.0,-100.00,NNE,15,6.0,9.0,23,-99.99,,,-99.99,,2013-04-15 02:21:00,
2013-04-14 20:32:00,31.0,-2.0,-100.00,NNE,15,6.0,9.0,23,-99.99,,,-99.99,,2013-04-15 02:32:00,
2013-04-14 21:22:00,25.0,17.0,-100.00,East,80,14.0,18.0,69,-99.99,,,-99.99,,2013-04-15 03:22:00,
2013-04-14 21:32:00,25.0,16.0,-100.00,ENE,75,12.0,18.0,68,-99.99,,,-99.99,,2013-04-15 03:32:00,
2013-04-14 21:43:00,25.0,16.0,-100.00,ENE,65,14.0,17.0,67,-99.99,,,-99.99,,2013-04-15 03:43:00,
2013-04-14 21:53:00,25.0,15.0,-100.00,NE,55,12.0,19.0,67,-99.99,,,-99.99,,2013-04-15 03:53:00,
2013-04-14 22:02:00,25.0,15.0,-100.00,ENE,65,13.0,17.0,66,-99.99,,,-99.99,,2013-04-15 04:02:00,
2013-04-14 22:12:00,25.0,15.0,-100.00,East,85,12.0,17.0,66,-99.99,,,-99.99,,2013-04-15 04:12:00,
2013-04-14 22:22:00,24.0,16.0,-100.00,East,80,12.0,13.0,69,-99.99,,,-99.99,,2013-04-15 04:22:00,
2013-04-14 22:32:00,24.0,16.0,-100.00,East,90,8.0,12.0,70,-99.99,,,-99.99,,2013-04-15 04:32:00,
2013-04-14 22:42:00,24.0,15.0,-100.00,East,90,6.0,11.0,70,-99.99,,,-99.99,,2013-04-15 04:42:00,
2013-04-14 22:52:00,24.0,15.0,-100.00,East,90,8.0,10.0,69,-99.99,,,-99.99,,2013-04-15 04:52:00,
2013-04-14 23:02:00,24.0,15.0,-100.00,ENE,70,7.0,12.0,68,-99.99,,,-99.99,,2013-04-15 05:02:00,
2013-04-14 23:12:00,24.0,14.0,-100.00,ENE,75,11.0,14.0,66,-99.99,,,-99.99,,2013-04-15 05:12:00,
2013-04-14 23:22:00,24.0,13.0,-100.00,ENE,70,4.0,9.0,64,-99.99,,,-99.99,,2013-04-15 05:22:00,
2013-04-14 23:32:00,24.0,12.0,-100.00,ENE,65,5.0,9.0,59,-99.99,,,-99.99,,2013-04-15 05:32:00,
2013-04-14 23:42:00,24.0,12.0,-100.00,ENE,65,2.0,9.0,60,-99.99,,,-99.99,,2013-04-15 05:42:00,
2013-04-14 23:51:00,24.0,12.0,-100.00,NE,40,4.0,8.0,60,-99.99,,,-99.99,,2013-04-15 05:51:00,